GW4121 Weather Reports


Display with metric or nautical units.
time (UTC)temp
F
wind
direction
speed
MPH
gust
MPH
rain 1hr
in
rain 24hr
in
rain mn
in
humidity
%
barometer
mb
20260506155005 60 325 2.0 10.0 0.00 0.10 0.05 86 1010.4
20260506154504 60 310 2.0 9.0 0.00 0.10 0.05 85 1010.4
20260506154006 60 322 3.0 9.0 0.00 0.10 0.05 85 1010.4
20260506153714 60 327 4.0 9.0 0.00 0.10 0.05 85 1010.4
20260506153217 60 335 4.0 9.0 0.00 0.10 0.05 85 1010.5
20260506152504 60 316 3.0 7.0 0.00 0.10 0.05 86 1010.5
20260506152006 59 309 4.0 12.0 0.00 0.10 0.05 86 1010.6
20260506151504 59 314 5.0 12.0 0.00 0.10 0.05 86 1010.5
20260506151004 59 318 3.0 7.0 0.00 0.10 0.05 86 1010.5
20260506150504 59 314 3.0 7.0 0.00 0.10 0.05 86 1010.5
20260506150005 59 318 4.0 8.0 0.00 0.10 0.05 86 1010.4
20260506145504 59 312 3.0 8.0 0.00 0.10 0.05 87 1010.4
20260506145004 59 302 2.0 7.0 0.00 0.10 0.05 87 1010.4
20260506144504 59 306 3.0 10.0 0.00 0.10 0.05 87 1010.5
20260506144216 59 316 3.0 10.0 0.00 0.10 0.05 87 1010.5
20260506143504 59 306 3.0 9.0 0.00 0.10 0.05 87 1010.5
20260506143004 59 304 2.0 9.0 0.00 0.10 0.05 87 1010.5
20260506142504 59 311 2.0 8.0 0.00 0.10 0.05 87 1010.5
20260506142004 59 305 3.0 10.0 0.00 0.10 0.05 86 1010.6
20260506141506 59 297 4.0 12.0 0.00 0.10 0.05 86 1010.7
20260506141004 59 312 5.0 12.0 0.00 0.10 0.05 86 1010.6
20260506140504 59 317 4.0 9.0 0.00 0.10 0.05 86 1010.7
20260506140005 60 304 5.0 12.0 0.00 0.10 0.05 85 1010.8
20260506135718 60 304 5.0 12.0 0.00 0.10 0.05 85 1010.8
20260506135004 59 321 4.0 9.0 0.00 0.10 0.05 85 1010.8
20260506134504 59 326 3.0 9.0 0.00 0.10 0.05 85 1010.8
20260506134006 59 321 3.0 11.0 0.00 0.10 0.05 86 1010.9
20260506133505 60 335 5.0 14.0 0.00 0.10 0.05 85 1011.0
20260506133004 60 343 6.0 14.0 0.00 0.10 0.05 84 1010.9
20260506132504 60 337 5.0 10.0 0.00 0.10 0.05 85 1010.9
20260506132005 60 347 3.0 6.0 0.00 0.10 0.05 84 1011.0
20260506131505 60 357 1.0 4.0 0.00 0.10 0.05 85 1011.0
20260506131004 60 323 1.0 6.0 0.00 0.10 0.05 85 1011.0
20260506130504 60 336 3.0 7.0 0.00 0.10 0.05 84 1010.9
20260506130216 60 341 3.0 7.0 0.00 0.10 0.05 84 1010.9
20260506125504 60 339 3.0 5.0 0.00 0.10 0.05 85 1011.1
20260506125005 60 332 3.0 6.0 0.00 0.10 0.05 85 1011.1
20260506124715 60 337 4.0 13.0 0.00 0.10 0.05 85 1011.2
20260506124006 59 326 5.0 13.0 0.00 0.10 0.05 84 1011.0
20260506123504 59 319 4.0 10.0 0.01 0.10 0.05 85 1011.2
20260506123004 59 313 4.0 10.0 0.01 0.10 0.05 85 1011.2
20260506122504 59 313 5.0 10.0 0.01 0.10 0.05 86 1011.2
20260506122004 59 327 4.0 9.0 0.01 0.10 0.05 87 1011.4
20260506121504 59 332 5.0 8.0 0.01 0.10 0.05 87 1011.4
20260506121004 59 324 4.0 8.0 0.01 0.10 0.05 87 1011.4
20260506120505 59 333 2.0 5.0 0.01 0.10 0.05 89 1011.4
20260506120007 59 326 1.0 5.0 0.01 0.10 0.05 88 1011.4
20260506115504 59 314 1.0 4.0 0.01 0.10 0.05 87 1011.4
20260506115005 59 315 2.0 5.0 0.01 0.10 0.05 87 1011.4
20260506114504 59 318 2.0 6.0 0.01 0.10 0.05 87 1011.5
20260506114005 59 336 3.0 6.0 0.01 0.10 0.05 87 1011.5
20260506113716 59 337 2.0 5.0 0.00 0.09 0.04 86 1011.6
20260506113006 59 316 2.0 7.0 0.00 0.09 0.04 85 1011.6
20260506112717 59 314 3.0 10.0 0.00 0.09 0.04 85 1011.6
20260506112004 60 313 3.0 10.0 0.00 0.09 0.04 85 1011.7
20260506111504 60 322 4.0 10.0 0.00 0.09 0.04 84 1011.8
20260506111216 60 325 3.0 10.0 0.00 0.09 0.04 85 1011.8
20260506110509 60 310 3.0 9.0 0.00 0.09 0.04 84 1011.8
20260506110217 60 310 3.0 9.0 0.00 0.09 0.04 84 1011.8
20260506105504 60 311 3.0 7.0 0.00 0.09 0.04 84 1012.0
20260506105005 60 305 3.0 8.0 0.01 0.09 0.04 85 1012.3
20260506104504 60 314 3.0 9.0 0.01 0.09 0.04 84 1012.1
20260506104004 60 2 4.0 13.0 0.01 0.09 0.04 83 1012.1
20260506103504 60 359 5.0 13.0 0.01 0.09 0.04 84 1012.1
20260506103006 60 331 4.0 9.0 0.01 0.09 0.04 85 1012.2
20260506102504 59 324 3.0 9.0 0.01 0.09 0.04 86 1012.3
20260506102004 60 327 3.0 9.0 0.01 0.09 0.04 86 1012.2
20260506101504 60 342 2.0 7.0 0.01 0.09 0.04 86 1012.2
20260506101004 60 13 2.0 7.0 0.01 0.09 0.04 86 1012.3
20260506100504 60 342 2.0 5.0 0.01 0.09 0.04 86 1012.4
20260506100007 60 305 2.0 5.0 0.01 0.09 0.04 86 1012.4
20260506095504 60 313 2.0 5.0 0.01 0.09 0.04 87 1012.4
20260506095006 60 139 3.0 10.0 0.00 0.09 0.03 86 1012.4
20260506094504 60 133 4.0 11.0 0.00 0.09 0.03 85 1012.4
20260506094004 60 138 3.0 11.0 0.00 0.09 0.03 86 1012.4
20260506093717 60 128 3.0 10.0 0.00 0.09 0.03 85 1012.3
20260506093004 60 99 2.0 5.0 0.00 0.09 0.03 85 1012.3
20260506092506 60 34 1.0 4.0 0.00 0.09 0.03 86 1012.3
20260506092004 61 353 1.0 4.0 0.00 0.09 0.03 86 1012.4
20260506091504 60 314 2.0 8.0 0.00 0.09 0.03 86 1012.4
20260506091004 60 304 2.0 8.0 0.00 0.09 0.03 86 1012.4
20260506090504 60 288 2.0 7.0 0.00 0.09 0.03 87 1012.4
20260506090218 60 283 2.0 7.0 0.00 0.09 0.03 86 1012.4
20260506085504 60 289 2.0 5.0 0.00 0.09 0.03 85 1012.3
20260506085214 60 299 2.0 5.0 0.00 0.09 0.03 86 1012.3
20260506084717 60 301 1.0 4.0 0.00 0.09 0.03 87 1012.4
20260506084006 59 277 1.0 5.0 0.00 0.09 0.03 88 1012.1
20260506083504 59 260 1.0 5.0 0.00 0.09 0.03 89 1012.1
20260506083004 59 219 0.0 2.0 0.00 0.09 0.03 90 1012.1
20260506082504 58 179 1.0 3.0 0.00 0.09 0.03 90 1012.1
20260506082004 58 135 1.0 3.0 0.00 0.09 0.03 90 1012.1
20260506081504 58 131 2.0 4.0 0.00 0.09 0.03 90 1012.1
20260506081004 58 129 2.0 4.0 0.00 0.09 0.03 90 1012.1
20260506080504 58 109 1.0 3.0 0.01 0.09 0.03 91 1012.1
20260506073506 56 41 1.0 2.0 0.03 0.09 0.03 92 1012.4
20260506073004 56 53 0.0 2.0 0.03 0.09 0.03 92 1012.4
20260506072504 56 344 1.0 3.0 0.03 0.09 0.03 92 1012.4
20260506072004 56 352 1.0 3.0 0.03 0.09 0.03 91 1012.4
20260506071504 56 10 0.0 3.0 0.03 0.09 0.03 91 1012.4
20260506071005 56 349 2.0 5.0 0.03 0.09 0.03 90 1012.5
20260506070504 57 340 2.0 5.0 0.02 0.08 0.02 89 1012.5
20260506062504 60 267 2.0 5.0 0.00 0.06 0.00 80 1012.3
20260506062004 60 251 2.0 6.0 0.00 0.06 0.00 81 1012.2
20260506061504 60 246 2.0 7.0 0.00 0.06 0.00 81 1012.1
20260506061214 60 243 3.0 7.0 0.00 0.06 0.00 81 1012.1
20260506060504 60 221 2.0 7.0 0.00 0.06 0.00 80 1012.0
20260506060220 60 189 3.0 9.0 0.00 0.06 0.00 80 1012.0
20260506051005 58 206 2.0 7.0 0.00 0.06 0.00 83 1012.0
20260506050718 57 230 1.0 7.0 0.00 0.06 0.00 84 1011.9
20260506045004 57 270 1.0 5.0 0.00 0.06 0.00 85 1011.8
20260506044715 57 271 1.0 5.0 0.00 0.06 0.00 84 1011.8
20260506044004 57 238 2.0 7.0 0.00 0.06 0.00 84 1011.7
20260506043716 57 226 2.0 7.0 0.00 0.06 0.00 84 1011.7
20260506043004 57 177 3.0 8.0 0.00 0.06 0.00 84 1011.8
20260506042505 57 167 3.0 8.0 0.00 0.06 0.00 84 1011.8
20260506042215 57 160 4.0 8.0 0.00 0.06 0.00 83 1011.8
20260506041504 57 178 2.0 6.0 0.00 0.06 0.00 84 1011.9
20260506041004 57 192 3.0 10.0 0.00 0.06 0.00 85 1011.9
20260506040719 57 192 3.0 10.0 0.00 0.06 0.00 85 1011.9
20260506040006 57 257 1.0 6.0 0.00 0.06 0.00 86 1012.0
20260506035505 57 245 1.0 6.0 0.00 0.06 0.00 86 1012.0
20260506035004 57 243 0.0 2.0 0.00 0.06 0.00 86 1012.2
20260506034504 57 306 1.0 7.0 0.00 0.06 0.00 86 1012.1
20260506034004 57 318 3.0 9.0 0.00 0.06 0.00 86 1012.1
20260506033506 57 319 3.0 9.0 0.00 0.06 0.00 86 1012.0
20260506033005 57 315 2.0 5.0 0.00 0.06 0.00 87 1012.1
20260506032505 57 329 1.0 5.0 0.00 0.06 0.00 87 1012.2
20260506032005 56 121 0.0 1.0 0.00 0.06 0.00 87 1012.1
20260506031504 57 107 1.0 3.0 0.00 0.06 0.00 87 1012.1
20260506031004 57 47 1.0 6.0 0.00 0.06 0.00 87 1012.1
20260506030505 57 136 1.0 6.0 0.00 0.06 0.00 87 1012.0
20260506030005 57 176 1.0 5.0 0.00 0.06 0.00 87 1012.2
20260506025504 57 307 1.0 5.0 0.00 0.06 0.00 87 1012.2
20260506025006 57 316 1.0 5.0 0.00 0.06 0.00 86 1012.2
20260506024504 57 334 1.0 7.0 0.00 0.06 0.00 86 1012.2
20260506024004 57 316 2.0 7.0 0.00 0.06 0.00 86 1012.2
20260506023504 57 269 2.0 7.0 0.00 0.06 0.00 86 1012.3
20260506023004 57 248 2.0 7.0 0.00 0.06 0.00 86 1012.2
20260506022504 57 245 2.0 7.0 0.00 0.06 0.00 86 1012.3
20260506022006 57 249 1.0 7.0 0.00 0.06 0.00 86 1012.3
20260506021504 57 312 2.0 13.0 0.00 0.06 0.00 87 1012.3
20260506021004 56 315 2.0 13.0 0.00 0.06 0.00 87 1012.4
20260506020507 56 327 1.0 3.0 0.00 0.06 0.00 88 1012.4
20260506020006 56 339 1.0 3.0 0.00 0.06 0.00 88 1012.3
20260506015504 56 124 0.0 2.0 0.00 0.06 0.00 87 1012.3
20260506015004 56 120 1.0 2.0 0.00 0.06 0.00 87 1012.3
20260506014506 56 120 1.0 6.0 0.00 0.06 0.00 87 1012.2
20260506014004 56 131 1.0 6.0 0.00 0.06 0.00 87 1012.2
20260506013504 56 143 1.0 5.0 0.00 0.06 0.00 87 1012.1
20260506013004 56 293 2.0 7.0 0.00 0.06 0.00 86 1012.2
20260506012504 56 285 2.0 7.0 0.00 0.06 0.00 86 1012.1
20260506012216 56 234 1.0 4.0 0.00 0.06 0.00 86 1012.1
20260506011504 56 263 1.0 5.0 0.00 0.06 0.00 87 1012.2
20260506011217 56 271 1.0 5.0 0.00 0.06 0.00 87 1012.1
20260506010504 56 300 0.0 4.0 0.00 0.06 0.00 87 1012.0
20260506010218 56 291 0.0 1.0 0.00 0.06 0.00 87 1012.0
20260506005504 56 315 2.0 7.0 0.00 0.06 0.00 86 1012.0
20260506005004 56 308 3.0 7.0 0.00 0.06 0.00 87 1011.8
20260506004506 56 297 2.0 7.0 0.00 0.06 0.00 87 1012.2
20260506004004 56 135 1.0 6.0 0.00 0.06 0.00 87 1012.2
20260506003718 56 125 2.0 6.0 0.00 0.06 0.00 87 1012.1
20260506003006 56 178 1.0 6.0 0.00 0.06 0.00 86 1012.3
20260506002504 56 258 1.0 6.0 0.00 0.06 0.00 86 1012.2
20260506002006 56 232 1.0 4.0 0.00 0.06 0.00 86 1012.3
20260506001504 56 250 2.0 6.0 0.00 0.06 0.00 86 1012.2
20260506001218 56 254 1.0 6.0 0.00 0.06 0.00 86 1012.3
20260506000504 56 258 1.0 5.0 0.00 0.06 0.00 86 1012.4
20260506000005 56 293 1.0 4.0 0.00 0.06 0.00 86 1012.5
20260505235717 56 269 0.0 3.0 0.00 0.06 0.00 86 1012.5
20260505235004 56 310 1.0 3.0 0.00 0.06 0.00 86 1012.6
20260505234504 56 308 2.0 6.0 0.00 0.06 0.00 86 1012.5
20260505234006 56 317 3.0 11.0 0.00 0.06 0.00 86 1012.7
20260505233504 56 330 3.0 11.0 0.00 0.06 0.00 86 1012.7
20260505233004 56 340 3.0 8.0 0.00 0.06 0.00 86 1012.6
20260505232504 56 342 3.0 8.0 0.00 0.06 0.00 86 1012.7
20260505232005 57 328 2.0 7.0 0.00 0.06 0.00 85 1012.7
20260505231506 56 335 3.0 9.0 0.00 0.06 0.00 86 1012.7
20260505231006 57 337 2.0 9.0 0.00 0.06 0.00 86 1012.5
20260505230504 57 351 2.0 7.0 0.00 0.06 0.00 85 1012.7
20260505230007 57 16 2.0 7.0 0.00 0.06 0.00 85 1012.6
20260505225504 57 326 3.0 11.0 0.00 0.06 0.00 85 1012.7
20260505225215 57 277 3.0 11.0 0.00 0.06 0.00 85 1012.5
20260505224713 57 325 3.0 8.0 0.00 0.06 0.00 85 1012.7
20260505224006 57 1 3.0 9.0 0.00 0.06 0.00 85 1012.6
20260505223714 57 340 2.0 11.0 0.00 0.06 0.00 85 1012.7
20260505223217 56 337 3.0 12.0 0.00 0.06 0.00 86 1012.7
20260505222505 56 344 3.0 7.0 0.00 0.06 0.00 86 1012.6
20260505222004 56 328 4.0 7.0 0.00 0.06 0.00 86 1012.7
20260505221505 56 316 3.0 7.0 0.00 0.06 0.00 86 1012.8
20260505221005 56 309 2.0 7.0 0.00 0.06 0.00 87 1012.7
20260505220808 56 307 2.0 6.0 0.00 0.06 0.00 87 1012.8
20260505220504 56 304 2.0 4.0 0.00 0.06 0.00 86 1012.7
20260505215718 56 282 1.0 3.0 0.00 0.06 0.06 86 1012.9
20260505215004 57 289 2.0 8.0 0.00 0.06 0.06 85 1013.0
20260505214504 57 301 3.0 15.0 0.00 0.06 0.06 85 1013.0
20260505214006 57 303 3.0 15.0 0.00 0.06 0.06 85 1013.0
20260505213720 57 290 2.0 7.0 0.00 0.06 0.06 86 1013.1
20260505213004 57 294 4.0 9.0 0.00 0.06 0.06 85 1013.0
20260505212505 57 298 5.0 13.0 0.00 0.06 0.06 85 1013.2
20260505212005 57 299 5.0 13.0 0.00 0.06 0.06 85 1013.2
20260505211504 57 303 5.0 11.0 0.00 0.06 0.06 85 1013.3
20260505211004 57 302 4.0 11.0 0.00 0.06 0.06 86 1013.2
20260505210504 57 250 3.0 9.0 0.00 0.06 0.06 86 1013.1
20260505210007 57 243 3.0 9.0 0.00 0.06 0.06 86 1013.4
20260505205714 57 289 3.0 9.0 0.00 0.06 0.06 86 1013.3
20260505205005 57 314 4.0 12.0 0.00 0.06 0.06 87 1013.2
20260505204506 56 304 5.0 12.0 0.00 0.06 0.06 87 1013.1
20260505204006 56 301 5.0 13.0 0.00 0.06 0.06 87 1013.0
20260505203715 56 286 5.0 13.0 0.00 0.06 0.06 87 1013.1
20260505203004 56 291 5.0 16.0 0.00 0.06 0.06 88 1013.0
20260505202506 56 262 7.0 17.0 0.00 0.06 0.06 88 1013.0
20260505202005 56 251 9.0 21.0 0.00 0.06 0.06 87 1013.0
20260505201504 56 254 9.0 21.0 0.00 0.06 0.06 88 1012.7
20260505201005 56 269 9.0 19.0 0.00 0.06 0.06 88 1012.6
20260505200718 56 271 9.0 19.0 0.00 0.06 0.06 87 1012.5
20260505200005 57 261 8.0 21.0 0.00 0.06 0.06 88 1012.3
20260505195504 56 271 7.0 20.0 0.00 0.06 0.06 88 1012.6
20260505195217 56 280 6.0 15.0 0.01 0.06 0.06 88 1012.6
20260505194504 56 275 7.0 16.0 0.01 0.06 0.06 88 1012.7
20260505194218 56 277 7.0 16.0 0.02 0.06 0.06 89 1012.6
20260505193504 56 274 6.0 15.0 0.02 0.06 0.06 89 1012.8
20260505193006 56 263 5.0 15.0 0.02 0.06 0.06 89 1012.8
20260505192504 56 281 5.0 12.0 0.02 0.06 0.06 89 1012.8
20260505192004 56 296 5.0 14.0 0.02 0.06 0.06 89 1012.8
20260505191506 56 295 4.0 14.0 0.02 0.06 0.06 90 1012.8
20260505191004 55 289 3.0 8.0 0.04 0.06 0.06 91 1012.7
20260505190504 55 294 2.0 5.0 0.04 0.06 0.06 91 1012.8
20260505190005 55 312 3.0 11.0 0.04 0.06 0.06 90 1012.8
20260505185504 55 317 3.0 11.0 0.04 0.06 0.06 91 1012.8
20260505185004 55 323 1.0 6.0 0.04 0.05 0.05 91 1012.8
20260505184504 55 317 1.0 6.0 0.04 0.05 0.05 91 1012.8
20260505184004 55 325 3.0 7.0 0.03 0.04 0.04 91 1012.8
20260505183506 55 338 2.0 7.0 0.04 0.04 0.04 91 1012.7
20260505183004 55 6 1.0 4.0 0.04 0.04 0.04 91 1012.6
20260505182504 55 335 2.0 6.0 0.04 0.04 0.04 90 1012.7
20260505182006 55 304 2.0 6.0 0.04 0.04 0.04 90 1012.6
20260505181719 55 280 2.0 6.0 0.03 0.03 0.03 90 1012.8
20260505181004 55 290 2.0 6.0 0.02 0.02 0.02 89 1012.7
20260505180504 56 267 2.0 6.0 0.02 0.02 0.02 89 1012.7
20260505180218 55 280 2.0 6.0 0.02 0.02 0.02 90 1012.9
20260505175506 55 319 1.0 4.0 0.02 0.02 0.02 90 1012.8
20260505175006 55 290 0.0 2.0 0.01 0.01 0.01 90 1012.8
20260505174504 55 320 1.0 2.0 0.01 0.01 0.01 89 1012.7
20260505174004 55 309 1.0 2.0 0.01 0.01 0.01 89 1012.7
20260505173504 56 320 1.0 6.0 0.00 0.00 0.00 88 1012.9
20260505173006 56 319 2.0 6.0 0.00 0.00 0.00 87 1012.8
20260505172505 56 302 3.0 10.0 0.00 0.00 0.00 86 1012.9
20260505172005 57 274 3.0 10.0 0.00 0.00 0.00 85 1012.9
20260505171504 57 272 2.0 7.0 0.00 0.00 0.00 84 1012.9
20260505171004 57 296 1.0 5.0 0.00 0.00 0.00 84 1013.0
20260505170504 57 271 1.0 6.0 0.00 0.00 0.00 84 1012.9
20260505170005 57 271 1.0 6.0 0.00 0.00 0.00 83 1013.0
20260505165504 57 274 2.0 6.0 0.00 0.00 0.00 82 1013.0
20260505165004 57 262 2.0 6.0 0.00 0.00 0.00 81 1012.9
20260505164504 57 266 2.0 7.0 0.00 0.00 0.00 82 1013.0
20260505164004 58 273 3.0 11.0 0.00 0.00 0.00 80 1013.0
20260505163506 58 284 3.0 11.0 0.00 0.00 0.00 79 1013.1
20260505163007 58 305 3.0 8.0 0.00 0.00 0.00 79 1013.0
20260505162504 58 304 3.0 8.0 0.00 0.00 0.00 78 1013.0
20260505162006 58 276 2.0 5.0 0.00 0.00 0.00 78 1013.2
20260505161504 58 253 2.0 5.0 0.00 0.00 0.00 78 1013.2
20260505161218 58 251 1.0 5.0 0.00 0.00 0.00 78 1013.2
20260505160504 58 303 2.0 5.0 0.00 0.00 0.00 78 1013.3